Starlink 30350

operational
NORAD ID: 57746 Int'l Des: 2023-131 Owner: SPXS Country: US Constellation: starlink
LEOCIRCULAR

Über Starlink 30350

Beschreibung wird geladen...

Live-Position

3D-Globus wird geladen...

Nächste Überflüge

Höhenverlauf

Altitude vs Time

uPlot chart will show altitude changes over time

Zweizeiliger Elementsatz

1 57746U 23131Q 25258.14073629 -.00000490 00000-0 -21229-4 0 9998
2 57746 43.0037 45.9483 0001148 266.6028 93.4683 15.02537794113512
Epoch: 15. Sept. 2025 • Age: 14 hours

Aktueller Status

Höhe 571.3 km
Geschwindigkeit 7.58 km/s
Subsatellitenpunkt -42.30°S, 71.11°E
Startdatum 1. Sept. 2023
Alter 2 years
Typ internet

Technische Details

Klassifizierung Payload
Masse 730.00 kg
Trockenmasse 700.00 kg
Gesamtmasse 730.00 kg
Länge 0.30 m
Durchmesser 4.10 m
Spannweite 29.00 m
Form Box + pan
Hersteller SPXS
Bus-Typ Starlink V2M
Phasenstatus In Orbit
Besitzer/Staat SPXS/US

Große Konstellationen

Loading constellations...